Home   Weather   Caledon   Past weeks

Flag for Canada Past Weather in Caledon, Ontario, Canada — Yesterday and Last 2 Weeks

Now
32 °F

Overcast.


Feels Like: 24 °F
Forecast: 30 / 34 °F
Wind: 9 mph from Northwest

Location: Borden

Current Time: Jan 24, 2017 at 2:19:07 pm

Latest Report: Jan 24, 2017 at 1:15 pm


Visibility: 9 mi

Pressure: 29.66 "Hg

Humidity: 75%

Dew Point: 25 °F

Location of CaledonLocation

Past Weather in Caledon — Graph

°F

Caledon Temperature Yesterday

Maximum temperature yesterday: 36 °F (at 12:00 am)
Minimum temperature yesterday: 34 °F (at 1:00 am)
Average temperature yesterday: 34 °F

High & Low Weather Summary for the Past Weeks

 TemperatureHumidityPressure
High43 °F (Jan 10, 10:33 pm)100% (Jan 10, 3:35 pm)30.81 "Hg (Jan 10, 3:35 pm)
Low7 °F (Jan 14, 3:00 am)56% (Jan 16, 4:00 pm)29.35 "Hg (Jan 10, 11:18 pm)
Average31 °F89%29.98 "Hg
* Reported Jan 9 1:00 pm — Jan 24 1:15 pm, Caledon, Weather by CustomWeather, © 2017

Note: Actual official high and low records may vary slightly from our data, if they occured in-between our weather recording intervals... More about our weather records

Advertising

Caledon Weather History for the Previous 24 Hours

Scroll right to see more
 ConditionsComfort  
Time TempWeatherWind HumidityBarometerVisibility
1:15 pm
Tue, Jan 24
32 °FOvercast.9 mph75%29.66 "Hg9 mi
12:38 pm32 °FMostly cloudy.6 mph80%29.68 "Hg9 mi
12:00 pm32 °FOvercast.5 mph75%29.72 "Hg9 mi
11:19 am32 °FPartly sunny.3 mph75%29.71 "Hg9 mi
11:00 am32 °FOvercast.2 mph75%29.75 "Hg9 mi
10:00 am30 °FOvercast.3 mph80%29.76 "Hg9 mi
9:00 am30 °FOvercast.3 mph86%29.76 "Hg9 mi
8:00 am30 °FOvercast.2 mph86%29.76 "Hg9 mi
7:38 am30 °FOvercast.No wind86%29.73 "Hg9 mi
7:00 am28 °FOvercast.No wind93%29.76 "Hg9 mi
6:38 am28 °FPassing clouds.2 mph93%29.73 "Hg9 mi
6:00 am28 °FClear.3 mph93%29.75 "Hg9 mi
5:00 am30 °FPassing clouds.3 mph86%29.75 "Hg9 mi
4:00 am30 °FOvercast.2 mph86%29.76 "Hg9 mi
3:00 am32 °FPassing clouds.5 mph80%29.78 "Hg9 mi
2:23 am32 °FPassing clouds.8 mph80%29.76 "Hg9 mi
1:00 am32 °FOvercast.9 mph87%29.79 "Hg9 mi
12:00 am34 °FOvercast.14 mph87%29.80 "Hg9 mi
11:00 pm
Mon, Jan 23
34 °FOvercast.13 mph87%29.82 "Hg9 mi
10:00 pm34 °FOvercast.10 mph87%29.81 "Hg9 mi
9:53 pm34 °FOvercast.8 mph87%29.79 "Hg9 mi
9:00 pm36 °FOvercast.5 mph87%29.83 "Hg9 mi
8:00 pm36 °FMostly cloudy.7 mph87%29.84 "Hg9 mi
7:00 pm36 °FOvercast.5 mph87%29.84 "Hg9 mi
6:00 pm34 °FPartly cloudy.3 mph93%29.82 "Hg9 mi
5:00 pm36 °FBroken clouds.5 mph93%29.80 "Hg9 mi
4:36 pm36 °FOvercast.5 mph93%29.78 "Hg9 mi
4:00 pm36 °FLow clouds.8 mph93%29.80 "Hg9 mi
3:00 pm36 °FLow clouds.6 mph93%29.78 "Hg9 mi
2:00 pm36 °FLow clouds.8 mph93%29.80 "Hg9 mi
Weather by CustomWeather, © 2017

See weather overviewHow to use our weather pages